sat.trackr.live / text

‹ back to catalog

STARLINK-11470 [DTC]

NORAD 62062 · 2024-217F

PAYLOAD ACTIVE UNKNOWN

§ Identity

Operator
Country
US
Launch date
2024-11-24
Launch site
AFWTR
Launch vehicle
Mass (kg)
RCS (m²)

Purposes: comms

External: N2YO · Heavens-Above · Gunter

§ Orbital elements

Epoch: 2026-09-21T06:49:21.004032Z

Period
91.73 min
Inclination
53.1586°
Eccentricity
0.0001373
Mean motion
15.69753447 rev/d
Perigee alt
358.7 km
Apogee alt
360.5 km
Semi-major
6,737.7 km
B*
9.0531e-4
RAAN
187.0595°
Arg perigee
116.6825°
Mean anomaly
243.4333°
Rev number
10,583

§ Raw data

STARLINK-11470 [DTC]1 62062U 24217F   26264.28427088  .00110763  00000+0  90531-3 0  99992 62062  53.1586 187.0595 0001373 116.6825 243.4333 15.69753447105834

JSON: /api/v1/satellites/62062 · /tle

For live sub-satellite position, see the globe view (requires WebGL).

§ Visibility from observer

Set your observer location to see the next 7 days of passes ≥ 10°. The values pass through the URL so the page stays shareable.

No JS? Fill the form by hand. The geolocation button needs JavaScript.